OAL638 SLPO-SBCG

Flight info

Callsign OAL638
Flight time 1h 30m
Altitude 35000
Route PTS DCT OGRON DCT UMSIL DCT IRIPI
Aircraft B738/M-VGDW/C

Departure

Time 2026-05-08 18:02
Airport Capitan Nicolas Rojas Airport (SLPO)

Arrival

Time 2026-05-08 19:33
Airport Campo Grande Airport (SBCG)
Time Latitude Longitude Altitude Speed Heading
2026-05-08 17:53 -19.54238 -65.72049 12661 ft 0 kts 327°
2026-05-08 17:55 -19.54231 -65.72054 12662 ft 2 kts 327°
2026-05-08 17:55 -19.54225 -65.72058 12662 ft 0 kts 327°
2026-05-08 17:57 -19.54224 -65.72058 12662 ft 3 kts 327°
2026-05-08 17:57 -19.54161 -65.72089 12661 ft 17 kts 355°
2026-05-08 17:57 -19.54074 -65.72006 12659 ft 19 kts 57°
2026-05-08 17:58 -19.53998 -65.71885 12649 ft 21 kts 57°
2026-05-08 17:58 -19.53912 -65.71747 12635 ft 24 kts 57°
2026-05-08 17:58 -19.53814 -65.71597 12625 ft 26 kts 55°
2026-05-08 17:58 -19.53723 -65.71454 12611 ft 18 kts 57°
2026-05-08 17:59 -19.53670 -65.71354 12606 ft 13 kts 76°
2026-05-08 17:59 -19.53665 -65.71319 12604 ft 1 kts 56°
2026-05-08 17:59 -19.53652 -65.71321 12601 ft 3 kts 328°
2026-05-08 17:59 -19.53654 -65.71341 12602 ft 4 kts 238°
2026-05-08 18:00 -19.53660 -65.71352 12606 ft 0 kts 239°
2026-05-08 18:01 -19.53671 -65.71370 12606 ft 15 kts 238°
2026-05-08 18:01 -19.53837 -65.71630 12627 ft 68 kts 236°
2026-05-08 18:01 -19.54196 -65.72191 12666 ft 114 kts 235°
2026-05-08 18:01 -19.54722 -65.73011 12727 ft 153 kts 236°
2026-05-08 18:02 -19.55355 -65.74039 13029 ft 172 kts 239°
2026-05-08 18:02 -19.55970 -65.75128 13507 ft 177 kts 250°
2026-05-08 18:02 -19.56012 -65.76402 13894 ft 174 kts 291°
2026-05-08 18:02 -19.55314 -65.77434 14325 ft 175 kts 321°
2026-05-08 18:03 -19.54129 -65.77858 14645 ft 197 kts 357°
2026-05-08 18:03 -19.52765 -65.77414 14738 ft 221 kts 28°
2026-05-08 18:03 -19.51590 -65.76233 14762 ft 246 kts 61°
2026-05-08 18:03 -19.51195 -65.74462 15003 ft 255 kts 84°
2026-05-08 18:04 -19.50854 -65.72567 15151 ft 270 kts 73°
2026-05-08 18:04 -19.50372 -65.70647 15478 ft 270 kts 85°
2026-05-08 18:04 -19.50742 -65.68736 15784 ft 266 kts 123°
2026-05-08 18:04 -19.52042 -65.67371 16007 ft 268 kts 152°
2026-05-08 18:05 -19.53578 -65.66211 16225 ft 278 kts 133°
2026-05-08 18:05 -19.54422 -65.64328 16329 ft 295 kts 100°
2026-05-08 18:05 -19.54541 -65.62106 16486 ft 309 kts 90°
2026-05-08 18:05 -19.54500 -65.59773 16578 ft 325 kts 89°
2026-05-08 18:06 -19.54491 -65.57302 16690 ft 345 kts 91°
2026-05-08 18:06 -19.54564 -65.54675 16810 ft 367 kts 93°
2026-05-08 18:06 -19.54721 -65.51950 16963 ft 384 kts 95°
2026-05-08 18:06 -19.54957 -65.49071 17213 ft 398 kts 96°
2026-05-08 18:07 -19.55247 -65.46132 17648 ft 404 kts 97°
2026-05-08 18:07 -19.55572 -65.43159 18180 ft 408 kts 98°
2026-05-08 18:07 -19.55918 -65.40159 18617 ft 411 kts 98°
2026-05-08 18:07 -19.56277 -65.37143 19133 ft 413 kts 98°
2026-05-08 18:08 -19.56641 -65.34116 19619 ft 415 kts 98°
2026-05-08 18:08 -19.57008 -65.31068 20097 ft 417 kts 98°
2026-05-08 18:08 -19.57376 -65.28007 20569 ft 420 kts 98°
2026-05-08 18:08 -19.57745 -65.24927 21060 ft 421 kts 98°
2026-05-08 18:09 -19.58114 -65.21846 21576 ft 423 kts 98°
2026-05-08 18:09 -19.58487 -65.18734 21923 ft 428 kts 98°
2026-05-08 18:09 -19.58862 -65.15585 22361 ft 431 kts 98°
2026-05-08 18:09 -19.59240 -65.12425 22821 ft 434 kts 98°
2026-05-08 18:10 -19.59621 -65.09241 23250 ft 436 kts 98°
2026-05-08 18:10 -19.59999 -65.06040 23633 ft 439 kts 98°
2026-05-08 18:10 -19.60376 -65.02818 23952 ft 442 kts 98°
2026-05-08 18:10 -19.60759 -64.99564 24232 ft 447 kts 98°
2026-05-08 18:11 -19.61148 -64.96278 24582 ft 450 kts 98°
2026-05-08 18:11 -19.61532 -64.93020 24892 ft 453 kts 98°
2026-05-08 18:11 -19.61923 -64.89694 25178 ft 455 kts 98°
2026-05-08 18:11 -19.62315 -64.86346 25418 ft 460 kts 98°
2026-05-08 18:12 -19.62710 -64.82975 25806 ft 460 kts 97°
2026-05-08 18:12 -19.63106 -64.79605 26134 ft 463 kts 97°
2026-05-08 18:12 -19.63504 -64.76196 26367 ft 468 kts 97°
2026-05-08 18:12 -19.63906 -64.72755 26706 ft 470 kts 97°
2026-05-08 18:13 -19.64306 -64.69311 27042 ft 473 kts 97°
2026-05-08 18:13 -19.64710 -64.65835 27345 ft 476 kts 97°
2026-05-08 18:13 -19.65115 -64.62340 27642 ft 479 kts 97°
2026-05-08 18:13 -19.65522 -64.58823 27934 ft 481 kts 97°
2026-05-08 18:14 -19.65930 -64.55295 28255 ft 483 kts 97°
2026-05-08 18:14 -19.66340 -64.51741 28484 ft 487 kts 97°
2026-05-08 18:14 -19.66752 -64.48163 28712 ft 491 kts 97°
2026-05-08 18:14 -19.67167 -64.44558 28998 ft 493 kts 96°
2026-05-08 18:15 -19.67583 -64.40936 29288 ft 496 kts 97°
2026-05-08 18:15 -19.68000 -64.37295 29538 ft 498 kts 96°
2026-05-08 18:15 -19.68419 -64.33635 29800 ft 501 kts 96°
2026-05-08 18:15 -19.68839 -64.29955 30032 ft 504 kts 96°
2026-05-08 18:16 -19.69261 -64.26251 30244 ft 507 kts 96°
2026-05-08 18:16 -19.69685 -64.22532 30463 ft 508 kts 96°
2026-05-08 18:16 -19.70113 -64.18800 30681 ft 510 kts 96°
2026-05-08 18:16 -19.70536 -64.15059 30969 ft 510 kts 96°
2026-05-08 18:17 -19.70956 -64.11324 31267 ft 510 kts 96°
2026-05-08 18:17 -19.71377 -64.07594 31646 ft 508 kts 96°
2026-05-08 18:17 -19.71789 -64.03935 32040 ft 505 kts 96°
2026-05-08 18:17 -19.72205 -64.00239 32372 ft 505 kts 96°
2026-05-08 18:18 -19.72576 -63.96530 32598 ft 506 kts 94°
2026-05-08 18:18 -19.72794 -63.92801 32818 ft 507 kts 91°
2026-05-08 18:18 -19.72919 -63.89063 33201 ft 504 kts 90°
2026-05-08 18:18 -19.73009 -63.85354 33571 ft 502 kts 90°
2026-05-08 18:19 -19.73096 -63.81642 33748 ft 505 kts 90°
2026-05-08 18:19 -19.73194 -63.77907 33964 ft 506 kts 90°
2026-05-08 18:19 -19.73307 -63.74180 34256 ft 505 kts 91°
2026-05-08 18:19 -19.73431 -63.70444 34556 ft 504 kts 91°
2026-05-08 18:20 -19.73562 -63.66729 34817 ft 504 kts 91°
2026-05-08 18:20 -19.73697 -63.63002 34980 ft 506 kts 91°
2026-05-08 18:20 -19.73969 -63.55502 34988 ft 509 kts 91°
2026-05-08 18:21 -19.74239 -63.48063 35000 ft 504 kts 91°
2026-05-08 18:21 -19.74506 -63.40628 34987 ft 502 kts 90°
2026-05-08 18:22 -19.74753 -63.33224 34964 ft 502 kts 90°
2026-05-08 18:22 -19.74998 -63.25825 34959 ft 501 kts 90°
2026-05-08 18:23 -19.75245 -63.18435 34967 ft 501 kts 90°
2026-05-08 18:23 -19.75490 -63.11022 34957 ft 503 kts 90°
2026-05-08 18:24 -19.75732 -63.03632 34955 ft 505 kts 90°
2026-05-08 18:24 -19.75973 -62.96165 34953 ft 507 kts 90°
2026-05-08 18:25 -19.76212 -62.88668 34948 ft 509 kts 90°
2026-05-08 18:25 -19.76449 -62.81138 34951 ft 511 kts 90°
2026-05-08 18:26 -19.76683 -62.73615 34950 ft 512 kts 90°
2026-05-08 18:26 -19.76914 -62.66053 34946 ft 512 kts 90°
2026-05-08 18:27 -19.77105 -62.59761 34944 ft 513 kts 90°
2026-05-08 18:27 -19.77368 -62.50941 34949 ft 512 kts 90°
2026-05-08 18:28 -19.77589 -62.43397 34955 ft 511 kts 90°
2026-05-08 18:28 -19.77807 -62.35860 34955 ft 511 kts 90°
2026-05-08 18:29 -19.78022 -62.28330 34954 ft 510 kts 90°
2026-05-08 18:29 -19.78233 -62.20802 34951 ft 510 kts 90°
2026-05-08 18:30 -19.78440 -62.13325 34953 ft 509 kts 90°
2026-05-08 18:30 -19.78645 -62.05808 34954 ft 509 kts 90°
2026-05-08 18:31 -19.78847 -61.98297 34959 ft 509 kts 90°
2026-05-08 18:31 -19.79045 -61.90774 34964 ft 509 kts 90°
2026-05-08 18:32 -19.79241 -61.83252 34964 ft 510 kts 90°
2026-05-08 18:32 -19.79434 -61.75716 34967 ft 510 kts 90°
2026-05-08 18:33 -19.79623 -61.68183 34973 ft 511 kts 90°
2026-05-08 18:33 -19.79810 -61.60636 34974 ft 512 kts 90°
2026-05-08 18:34 -19.79994 -61.53079 34981 ft 512 kts 90°
2026-05-08 18:34 -19.80174 -61.45567 34978 ft 513 kts 90°
2026-05-08 18:35 -19.80352 -61.37990 34986 ft 513 kts 90°
2026-05-08 18:35 -19.80526 -61.30415 34994 ft 513 kts 90°
2026-05-08 18:36 -19.80698 -61.22829 34994 ft 514 kts 90°
2026-05-08 18:36 -19.80867 -61.15240 34992 ft 514 kts 90°
2026-05-08 18:37 -19.81032 -61.07651 34989 ft 514 kts 90°
2026-05-08 18:37 -19.81194 -61.00069 34998 ft 514 kts 90°
2026-05-08 18:38 -19.81353 -60.92479 35000 ft 514 kts 90°
2026-05-08 18:38 -19.81509 -60.84901 35001 ft 513 kts 90°
2026-05-08 18:39 -19.81660 -60.77364 35008 ft 513 kts 90°
2026-05-08 18:39 -19.81810 -60.69776 35006 ft 514 kts 90°
2026-05-08 18:40 -19.81956 -60.62186 35009 ft 513 kts 90°
2026-05-08 18:40 -19.82099 -60.54602 35015 ft 513 kts 90°
2026-05-08 18:41 -19.82238 -60.47012 35021 ft 513 kts 90°
2026-05-08 18:41 -19.82375 -60.39434 35015 ft 513 kts 90°
2026-05-08 18:42 -19.82508 -60.31858 35017 ft 513 kts 90°
2026-05-08 18:42 -19.82637 -60.24322 35012 ft 513 kts 90°
2026-05-08 18:43 -19.82764 -60.16748 35016 ft 513 kts 90°
2026-05-08 18:43 -19.82887 -60.09170 35019 ft 513 kts 89°
2026-05-08 18:44 -19.83008 -60.01587 35008 ft 514 kts 89°
2026-05-08 18:44 -19.83125 -59.94001 35015 ft 514 kts 89°
2026-05-08 18:45 -19.83239 -59.86423 35009 ft 514 kts 89°
2026-05-08 18:45 -19.83350 -59.78835 35016 ft 513 kts 89°
2026-05-08 18:46 -19.83458 -59.71250 35016 ft 513 kts 89°
2026-05-08 18:46 -19.83562 -59.63663 35024 ft 514 kts 89°
2026-05-08 18:47 -19.83663 -59.56078 35018 ft 514 kts 89°
2026-05-08 18:47 -19.83761 -59.48494 35015 ft 514 kts 89°
2026-05-08 18:48 -19.83856 -59.40958 35017 ft 514 kts 89°
2026-05-08 18:48 -19.83947 -59.33368 35008 ft 514 kts 89°
2026-05-08 18:49 -19.84036 -59.25783 34999 ft 514 kts 89°
2026-05-08 18:49 -19.84107 -59.19466 35010 ft 514 kts 89°
2026-05-08 18:50 -19.84190 -59.11875 35005 ft 513 kts 89°
2026-05-08 18:50 -19.84269 -59.04295 35004 ft 513 kts 89°
2026-05-08 18:51 -19.84345 -58.96708 34998 ft 514 kts 89°
2026-05-08 18:51 -19.84418 -58.89123 34985 ft 513 kts 89°
2026-05-08 18:52 -19.84488 -58.81534 34987 ft 513 kts 89°
2026-05-08 18:52 -19.84555 -58.73971 34980 ft 512 kts 89°
2026-05-08 18:53 -19.84618 -58.66405 34987 ft 512 kts 89°
2026-05-08 18:53 -19.84678 -58.58854 34975 ft 512 kts 89°
2026-05-08 18:54 -19.84734 -58.51338 34979 ft 512 kts 89°
2026-05-08 18:54 -19.84788 -58.43769 34960 ft 512 kts 89°
2026-05-08 18:55 -19.84862 -58.32430 34965 ft 512 kts 88°
2026-05-08 18:56 -19.84908 -58.24875 34956 ft 512 kts 88°
2026-05-08 18:56 -19.84950 -58.17314 34949 ft 511 kts 88°
2026-05-08 18:57 -19.84990 -58.09763 34946 ft 511 kts 88°
2026-05-08 18:57 -19.85026 -58.02216 34939 ft 510 kts 88°
2026-05-08 18:58 -19.85058 -57.94681 34939 ft 510 kts 88°
2026-05-08 18:58 -19.85088 -57.87150 34932 ft 510 kts 88°
2026-05-08 18:59 -19.85115 -57.79610 34932 ft 510 kts 88°
2026-05-08 18:59 -19.85138 -57.72129 34928 ft 510 kts 88°
2026-05-08 19:00 -19.85158 -57.64590 34926 ft 509 kts 88°
2026-05-08 19:00 -19.85175 -57.57066 34927 ft 509 kts 88°
2026-05-08 19:01 -19.85189 -57.49542 34926 ft 509 kts 88°
2026-05-08 19:01 -19.85209 -57.42013 34923 ft 510 kts 90°
2026-05-08 19:02 -19.85763 -57.34502 34918 ft 511 kts 95°
2026-05-08 19:02 -19.86575 -57.27005 34922 ft 511 kts 95°
2026-05-08 19:03 -19.87361 -57.19498 34908 ft 511 kts 95°
2026-05-08 19:03 -19.88090 -57.11976 34910 ft 512 kts 95°
2026-05-08 19:04 -19.88795 -57.04449 34905 ft 513 kts 95°
2026-05-08 19:04 -19.89497 -56.96905 34894 ft 513 kts 95°
2026-05-08 19:05 -19.90197 -56.89396 34879 ft 514 kts 95°
2026-05-08 19:05 -19.90898 -56.81852 34886 ft 513 kts 95°
2026-05-08 19:06 -19.91597 -56.74302 34890 ft 514 kts 95°
2026-05-08 19:06 -19.92294 -56.66727 34872 ft 515 kts 95°
2026-05-08 19:06 -19.92642 -56.62938 34612 ft 518 kts 95°
2026-05-08 19:07 -19.92992 -56.59102 34009 ft 520 kts 95°
2026-05-08 19:07 -19.93341 -56.55288 33332 ft 521 kts 95°
2026-05-08 19:07 -19.93691 -56.51448 32667 ft 521 kts 95°
2026-05-08 19:07 -19.94038 -56.47631 32199 ft 516 kts 95°
2026-05-08 19:08 -19.94380 -56.43853 31702 ft 513 kts 95°
2026-05-08 19:08 -19.94720 -56.40096 31220 ft 509 kts 95°
2026-05-08 19:08 -19.95057 -56.36363 30752 ft 505 kts 95°
2026-05-08 19:08 -19.95391 -56.32657 30263 ft 503 kts 95°
2026-05-08 19:09 -19.95722 -56.28963 29748 ft 500 kts 95°
2026-05-08 19:09 -19.96051 -56.25299 29215 ft 496 kts 95°
2026-05-08 19:09 -19.96376 -56.21665 28704 ft 491 kts 95°
2026-05-08 19:09 -19.96697 -56.18063 28217 ft 487 kts 95°
2026-05-08 19:10 -19.97014 -56.14499 27728 ft 482 kts 95°
2026-05-08 19:10 -19.97328 -56.10961 27249 ft 478 kts 95°
2026-05-08 19:10 -19.97639 -56.07458 26778 ft 474 kts 95°
2026-05-08 19:10 -19.97946 -56.03983 26308 ft 470 kts 95°
2026-05-08 19:11 -19.98246 -56.00575 25847 ft 467 kts 94°
2026-05-08 19:11 -19.98544 -55.97189 25768 ft 453 kts 94°
2026-05-08 19:11 -19.98833 -55.93905 25741 ft 440 kts 94°
2026-05-08 19:11 -19.99117 -55.90664 25755 ft 444 kts 94°
2026-05-08 19:12 -19.99406 -55.87344 25570 ft 459 kts 94°
2026-05-08 19:12 -19.99701 -55.83946 25331 ft 461 kts 94°
2026-05-08 19:12 -19.99994 -55.80579 25087 ft 455 kts 94°
2026-05-08 19:12 -20.00284 -55.77251 24852 ft 449 kts 94°
2026-05-08 19:13 -20.00570 -55.73958 24624 ft 446 kts 94°
2026-05-08 19:13 -20.00854 -55.70677 24373 ft 444 kts 94°
2026-05-08 19:13 -20.01135 -55.67419 23972 ft 441 kts 94°
2026-05-08 19:13 -20.01462 -55.64191 23553 ft 439 kts 100°
2026-05-08 19:14 -20.02490 -55.61150 23083 ft 436 kts 121°
2026-05-08 19:14 -20.04259 -55.58591 22764 ft 426 kts 134°
2026-05-08 19:14 -20.06245 -55.56262 22316 ft 423 kts 135°
2026-05-08 19:14 -20.08228 -55.53970 21862 ft 421 kts 135°
2026-05-08 19:15 -20.10203 -55.51673 21433 ft 418 kts 134°
2026-05-08 19:15 -20.12148 -55.49385 20981 ft 416 kts 134°
2026-05-08 19:15 -20.14075 -55.47098 20546 ft 414 kts 134°
2026-05-08 19:15 -20.15987 -55.44814 20092 ft 413 kts 133°
2026-05-08 19:16 -20.17891 -55.42533 19631 ft 412 kts 133°
2026-05-08 19:16 -20.19791 -55.40256 19194 ft 410 kts 133°
2026-05-08 19:16 -20.21680 -55.37991 18749 ft 409 kts 133°
2026-05-08 19:16 -20.23571 -55.35725 18310 ft 408 kts 133°
2026-05-08 19:17 -20.25357 -55.33391 17806 ft 408 kts 122°
2026-05-08 19:17 -20.26652 -55.30715 17413 ft 403 kts 115°
2026-05-08 19:17 -20.27827 -55.28018 16970 ft 401 kts 115°
2026-05-08 19:17 -20.29004 -55.25336 16553 ft 399 kts 115°
2026-05-08 19:18 -20.30193 -55.22671 16105 ft 397 kts 115°
2026-05-08 19:18 -20.31389 -55.20030 15682 ft 395 kts 115°
2026-05-08 19:18 -20.32577 -55.17426 15232 ft 396 kts 115°
2026-05-08 19:18 -20.33783 -55.14796 14784 ft 394 kts 115°
2026-05-08 19:19 -20.34985 -55.12175 14350 ft 393 kts 115°
2026-05-08 19:19 -20.36091 -55.09763 13941 ft 391 kts 115°
2026-05-08 19:19 -20.37274 -55.07180 13490 ft 387 kts 115°
2026-05-08 19:19 -20.38449 -55.04615 13037 ft 384 kts 115°
2026-05-08 19:20 -20.39709 -55.02116 12595 ft 383 kts 125°
2026-05-08 19:20 -20.40270 -55.01367 12390 ft 383 kts 134°
2026-05-08 19:20 -20.43561 -54.98211 11593 ft 381 kts 137°
2026-05-08 19:20 -20.45476 -54.96274 11193 ft 375 kts 136°
2026-05-08 19:21 -20.47319 -54.94377 10802 ft 363 kts 136°
2026-05-08 19:21 -20.49047 -54.92468 10454 ft 351 kts 125°
2026-05-08 19:21 -20.50047 -54.90194 10331 ft 329 kts 99°
2026-05-08 19:21 -20.50196 -54.87852 10204 ft 308 kts 78°
2026-05-08 19:22 -20.49707 -54.85700 10106 ft 293 kts 63°
2026-05-08 19:22 -20.48850 -54.83758 10079 ft 287 kts 51°
2026-05-08 19:22 -20.47562 -54.82163 10027 ft 284 kts 36°
2026-05-08 19:22 -20.46102 -54.80786 9883 ft 286 kts 34°
2026-05-08 19:23 -20.44592 -54.79408 9558 ft 285 kts 34°
2026-05-08 19:23 -20.43104 -54.78022 9277 ft 282 kts 34°
2026-05-08 19:23 -20.41653 -54.76642 8977 ft 277 kts 35°
2026-05-08 19:23 -20.40235 -54.75280 8702 ft 272 kts 35°
2026-05-08 19:24 -20.38837 -54.73933 8427 ft 270 kts 35°
2026-05-08 19:24 -20.37443 -54.72591 8168 ft 270 kts 35°
2026-05-08 19:24 -20.36047 -54.71248 7860 ft 271 kts 34°
2026-05-08 19:24 -20.34647 -54.69900 7593 ft 272 kts 34°
2026-05-08 19:25 -20.33242 -54.68547 7278 ft 272 kts 34°
2026-05-08 19:25 -20.31849 -54.67200 6911 ft 268 kts 34°
2026-05-08 19:25 -20.30484 -54.65893 6637 ft 260 kts 33°
2026-05-08 19:25 -20.29157 -54.64613 6334 ft 254 kts 34°
2026-05-08 19:26 -20.27866 -54.63366 6066 ft 247 kts 34°
2026-05-08 19:26 -20.26621 -54.62123 5784 ft 245 kts 41°
2026-05-08 19:26 -20.25807 -54.60512 5527 ft 253 kts 66°
2026-05-08 19:26 -20.25582 -54.58659 5314 ft 253 kts 86°
2026-05-08 19:27 -20.25954 -54.56846 5068 ft 250 kts 109°
2026-05-08 19:27 -20.26891 -54.55321 4843 ft 248 kts 133°
2026-05-08 19:27 -20.28270 -54.54257 4611 ft 242 kts 156°
2026-05-08 19:27 -20.29837 -54.53771 4377 ft 226 kts 175°
2026-05-08 19:28 -20.31266 -54.53738 4349 ft 191 kts 194°
2026-05-08 19:28 -20.32435 -54.54094 4375 ft 168 kts 209°
2026-05-08 19:28 -20.33497 -54.54601 4378 ft 164 kts 221°
2026-05-08 19:28 -20.34392 -54.55292 4363 ft 155 kts 230°
2026-05-08 19:29 -20.35205 -54.56038 4381 ft 154 kts 232°
2026-05-08 19:29 -20.36006 -54.56806 4374 ft 156 kts 234°
2026-05-08 19:29 -20.36815 -54.57588 4288 ft 158 kts 234°
2026-05-08 19:29 -20.37632 -54.58375 4139 ft 160 kts 233°
2026-05-08 19:30 -20.38462 -54.59174 3954 ft 160 kts 232°
2026-05-08 19:30 -20.39282 -54.59961 3738 ft 157 kts 233°
2026-05-08 19:30 -20.40081 -54.60730 3531 ft 153 kts 233°
2026-05-08 19:30 -20.40869 -54.61494 3337 ft 155 kts 231°
2026-05-08 19:31 -20.41687 -54.62279 3123 ft 161 kts 230°
2026-05-08 19:31 -20.42504 -54.63066 2908 ft 153 kts 229°
2026-05-08 19:31 -20.43282 -54.63812 2707 ft 149 kts 230°
2026-05-08 19:31 -20.44030 -54.64532 2510 ft 138 kts 230°
2026-05-08 19:32 -20.44709 -54.65206 2297 ft 128 kts 227°
2026-05-08 19:32 -20.45381 -54.65814 2135 ft 127 kts 228°
2026-05-08 19:32 -20.46061 -54.66488 1895 ft 140 kts 227°
2026-05-08 19:32 -20.46733 -54.67148 1838 ft 102 kts 224°
2026-05-08 19:33 -20.46976 -54.67399 1837 ft 19 kts 267°
2026-05-08 19:33 -20.46921 -54.67487 1836 ft 13 kts 311°
2026-05-08 19:33 -20.46842 -54.67502 1836 ft 13 kts 34°
2026-05-08 19:33 -20.46775 -54.67442 1837 ft 12 kts 43°
2026-05-08 19:34 -20.46711 -54.67381 1837 ft 12 kts 41°
2026-05-08 19:34 -20.46648 -54.67322 1837 ft 12 kts 41°
2026-05-08 19:34 -20.46588 -54.67264 1836 ft 12 kts 41°
2026-05-08 19:34 -20.46527 -54.67207 1836 ft 12 kts 43°
2026-05-08 19:35 -20.46455 -54.67133 1836 ft 17 kts 43°
2026-05-08 19:35 -20.46337 -54.67095 1836 ft 17 kts 357°
2026-05-08 19:35 -20.46221 -54.67111 1836 ft 15 kts 351°
2026-05-08 19:35 -20.46116 -54.67127 1836 ft 15 kts 353°
2026-05-08 19:36 -20.46015 -54.67135 1836 ft 14 kts 355°
2026-05-08 19:36 -20.45919 -54.67146 1836 ft 14 kts 355°
2026-05-08 19:36 -20.45869 -54.67114 1836 ft 8 kts 73°
2026-05-08 19:36 -20.45861 -54.67055 1836 ft 8 kts 84°
2026-05-08 19:37 -20.45838 -54.67008 1836 ft 8 kts 11°
2026-05-08 19:37 -20.45818 -54.67011 1836 ft 1 kts 350°
2026-05-08 19:37 -20.45804 -54.67012 1836 ft 3 kts 355°
2026-05-08 19:37 -20.45799 -54.67013 1836 ft 0 kts 355°